Location: Misciano
(43.5000°N, 11.9500°E)
Time: 17:49:54
(UTC+00:00)

Cosmos 2322 Rocket - Pass Details

Date: 13 August 2020
Orbit: 831 x 852 km, 71.0° (Epoch: 25 September)

Event Time Altitude Azimuth Distance (km) Brightness Sun altitude
Rises 22:27:32 0° 318° (NW) 3,421 6.2 -31.1°
Reaches altitude 10° 22:31:00 10° 296° (WNW) 2,483 5.0 -31.3°
Enters shadow 22:33:55 15° 265° (W) 2,129 4.3 -31.4°
